EW4785 Weather Reports


time (UTC)temp
C
wind
direction
speed
KPH
gust
KPH
rain 1hr
cm
rain 24hr
cm
rain mn
cm
humidity
%
barometer
mb
20260508064540 8 154 0.0 3.2 0.00 1.04 0.00 97 1014.2
20260508063039 8 154 0.0 1.6 0.00 1.04 0.00 97 1014.2
20260508061544 8 154 0.0 1.6 0.00 1.04 0.00 97 1014.4
20260508060035 9 154 0.0 0.0 0.00 1.04 0.00 97 1014.2
20260508054533 9 154 0.0 0.0 0.00 1.07 0.00 97 1014.3
20260508053033 9 154 0.0 0.0 0.00 1.07 0.00 97 1014.3
20260508051531 9 154 0.0 0.0 0.00 1.07 0.00 97 1014.2
20260508050028 9 154 0.0 0.0 0.00 1.07 0.00 97 1014.1
20260508044527 9 154 0.0 0.0 0.00 1.24 0.00 97 1013.9
20260508043047 9 154 0.0 0.0 0.00 1.24 0.00 97 1013.8
20260508041523 9 154 0.0 0.0 0.00 1.24 0.00 97 1013.6
20260508040024 10 154 0.0 0.0 0.00 1.24 0.00 96 1013.6
20260508034519 10 154 0.0 0.0 0.00 1.73 1.24 96 1013.5
20260508033015 10 154 0.0 0.0 0.00 1.73 1.24 96 1013.3
20260508031519 10 154 0.0 0.0 0.00 1.73 1.24 96 1013.3
20260508030012 10 154 0.0 0.0 0.00 1.73 1.24 96 1013.1
20260508024510 11 154 0.0 0.0 0.00 1.78 1.24 96 1013.1
20260508023006 11 154 0.0 0.0 0.00 1.78 1.24 96 1012.8
20260508021505 11 154 0.0 0.0 0.00 1.78 1.24 96 1012.8
20260508020100 11 154 0.0 0.0 0.00 1.78 1.24 96 1012.4
20260508020003 12 154 0.0 0.0 0.00 1.78 1.24 96 1012.4
20260508014600 12 154 0.0 0.0 0.00 1.78 1.24 97 1012.2
20260508013106 12 154 0.0 0.0 0.00 1.78 1.24 97 1012.0
20260508011559 12 154 0.0 0.0 0.00 1.78 1.24 96 1011.6
20260508010056 12 154 0.0 0.0 0.00 1.78 1.24 96 1011.3
20260508004555 12 154 0.0 0.0 0.00 1.78 1.24 96 1011.2
20260508003053 12 154 0.0 0.0 0.00 1.78 1.24 96 1011.3
20260508001553 12 17 0.0 1.6 0.00 1.78 1.24 96 1011.5
20260508000052 12 25 0.0 0.0 0.00 1.78 1.24 96 1011.3
20260507234553 12 25 0.0 1.6 0.00 1.78 1.24 96 1010.7
20260507233053 12 25 0.0 0.0 0.00 1.78 1.24 96 1010.4
20260507231549 12 25 0.0 0.0 0.00 1.78 1.24 96 1010.3
20260507230055 12 25 0.0 1.6 0.00 1.78 1.24 96 1010.0
20260507224548 12 25 0.0 3.2 0.00 1.78 1.24 96 1009.9
20260507223048 13 5 0.0 3.2 0.05 1.78 1.24 96 1009.9
20260507221547 13 12 0.0 8.0 0.05 1.78 1.24 96 1009.9
20260507220046 13 184 0.0 6.4 0.08 1.78 1.24 96 1009.6
20260507214646 13 298 0.0 1.6 0.13 1.78 1.24 96 1009.5
20260507213052 12 346 0.0 4.8 0.10 1.73 1.19 95 1009.7
20260507211544 13 65 0.0 3.2 0.10 1.73 1.19 95 1009.4
20260507210045 13 102 0.0 8.0 0.08 1.70 1.17 95 1009.3
20260507204551 13 47 0.0 4.8 0.00 1.63 1.09 94 1009.6
20260507203042 13 69 0.0 4.8 0.00 1.63 1.09 94 1009.2
20260507201549 13 46 1.6 8.0 0.00 1.63 1.09 93 1009.3
20260507200049 13 150 0.0 4.8 0.00 1.63 1.09 93 1009.2
20260507194546 13 51 1.6 4.8 0.00 1.63 1.09 94 1009.2
20260507193037 13 151 1.6 6.4 0.00 1.63 1.09 95 1008.9
20260507191537 13 76 3.2 8.0 0.00 1.63 1.09 95 1009.1
20260507190038 13 42 1.6 6.4 0.00 1.63 1.09 96 1009.1
20260507184537 13 88 1.6 8.0 0.00 1.65 1.09 96 1009.2
20260507183042 13 52 1.6 6.4 0.00 1.65 1.09 95 1009.3
20260507181531 14 46 0.0 4.8 0.00 1.65 1.09 95 1009.0
20260507180031 15 36 1.6 6.4 0.00 1.65 1.09 94 1009.4
20260507174531 16 360 3.2 9.7 0.00 1.65 1.09 93 1008.8
20260507173022 17 10 0.0 3.2 0.00 1.65 1.09 97 1008.9
20260507171528 17 350 0.0 3.2 0.00 1.65 1.09 96 1008.8
20260507170022 17 59 0.0 6.4 0.00 1.65 1.09 95 1009.3
20260507164521 18 92 1.6 6.4 0.03 1.65 1.09 97 1008.3
20260507163018 18 270 0.0 4.8 0.08 1.65 1.09 98 1008.3
20260507161517 18 286 0.0 3.2 0.18 1.65 1.09 98 1008.6
20260507160028 18 295 0.0 3.2 0.18 1.65 1.09 97 1009.0
20260507154517 18 295 0.0 3.2 0.18 1.63 1.07 97 1009.3
20260507153014 18 288 0.0 4.8 0.13 1.57 1.02 97 1009.9
20260507151514 18 302 0.0 4.8 0.05 1.45 0.91 97 1009.9
20260507150015 18 278 0.0 3.2 0.08 1.45 0.91 98 1009.1
20260507144512 18 267 0.0 3.2 0.10 1.42 0.89 98 1009.2
20260507143026 18 267 0.0 3.2 0.10 1.42 0.89 98 1009.4
20260507141511 18 267 0.0 3.2 0.13 1.42 0.86 98 1009.0
20260507140010 18 267 0.0 0.0 0.25 1.40 0.84 98 1008.5
20260507134509 18 267 0.0 1.6 0.23 1.35 0.79 98 1009.2
20260507133008 18 267 0.0 3.2 0.23 1.35 0.79 98 1009.3
20260507131510 18 259 0.0 4.8 0.20 1.30 0.71 98 1009.6
20260507130019 17 300 1.6 6.4 0.13 1.14 0.58 98 1010.5
20260507124506 17 214 0.0 1.6 0.10 1.12 0.56 98 1010.1
20260507123007 17 213 0.0 3.2 0.13 1.12 0.56 98 1009.7
20260507121506 17 153 0.0 4.8 0.13 1.09 0.53 98 1010.0
20260507120006 17 167 0.0 3.2 0.05 1.02 0.46 97 1010.1
20260507114505 17 175 1.6 3.2 0.05 1.02 0.46 98 1009.3
20260507113104 17 132 0.0 3.2 0.03 0.99 0.43 97 1009.1
20260507111504 17 184 0.0 3.2 0.00 0.97 0.41 98 1009.3
20260507104502 17 170 1.6 3.2 0.10 0.97 0.41 97 1009.8
20260507103101 17 175 1.6 3.2 0.10 0.97 0.41 97 1009.9
20260507101602 17 250 0.0 1.6 0.10 0.97 0.41 97 1009.4
20260507094558 17 179 0.0 6.4 0.03 0.89 0.33 97 1009.5
20260507093057 17 192 3.2 8.0 0.00 0.86 0.30 97 1009.5
20260507091557 17 180 1.6 6.4 0.03 0.86 0.30 97 1009.3
20260507084558 17 190 1.6 4.8 0.05 0.86 0.30 97 1009.4
20260507083058 17 202 1.6 8.0 0.05 0.86 0.30 97 1009.5
20260507081556 17 142 0.0 4.8 0.05 0.84 0.28 97 1009.7
20260507080104 17 182 0.0 4.8 0.03 0.81 0.25 97 1010.3
20260507074556 17 187 1.6 6.4 0.03 0.81 0.25 97 1010.3
20260507073053 17 194 1.6 6.4 0.03 0.81 0.25 97 1009.8
20260507071553 17 163 0.0 6.4 0.00 0.79 0.23 97 1010.0